Retour au catalogue

STARLINK-36884

ActifCommunicationsSSO
NORAD 68026·PAYLOAD·🇺🇸 United States

Lancé Mar 1, 2026 depuis Vandenberg Space Force Base

Loading…

Prochains Passages (prochaines 24 heures)

TLE

FraisSource: CelesTrak SupGP

Époque: Sep 15, 2026, 02:58 UTC

1 68026C 26040M   26258.12409722  .00036755  00000+0  11413-2 0  2589
2 68026  97.2857 205.5213 0001870  97.7194 237.2888 15.33411070    17

Suivez STARLINK-36884 en temps réel avec AllMySat

Download on the App Store